Regional Weather Roundup
Issued by NWS

Home | Current Version | Previous Version | Text Only | Print | Product List | Glossary On
Versions: 1 2 3 4 5 6 7 8 9 10 11 12 13 14 15 16 17 18 19 20 21 22 23 24 25 26 27 28 29 30 31 32 33 34 35 36 37 38 39 40 41 42 43 44 45 46 47 48 49 50
000
ASUS43 KLSX 270907
RWRMO

WEATHER SUMMARY FOR MISSOURI
NATIONAL WEATHER SERVICE SPRINGFIELD MO
300 AM CST TUE JAN 27 2015

NOTE: "FAIR" INDICATES FEW OR NO CLOUDS BELOW 12,000 FEET WITH NO
       SIGNIFICANT WEATHER AND/OR OBSTRUCTIONS TO VISIBILITY.
       CURRENT SKY AND/OR WEATHER CONDITIONS ARE NOT AVAILABLE FOR
       CHILLICOTHE AND FARMINGTON.

MOZ001>031-035>038-043-044-053-054-271000-
...NORTHERN AND WESTERN MISSOURI...

CITY           SKY/WX    TMP DP  RH WIND       PRES   REMARKS
KANSAS CTY INT CLEAR     38  31  76 N6        30.07R
KANSAS C DTWN  CLEAR     36  31  82 S6        30.08R
LEE`S SUMMIT   CLEAR     41  32  70 NW7       30.07R
ST JOSEPH      CLEAR     32  28  85 NE7       30.09R WCI  26
CHILLICOTHE      N/A     34  30  85 NW5       30.07R WCI  30
KIRKSVILLE     CLEAR     35  31  85 N8        30.02R WCI  29

$$
MOZ066>068-077>081-088>096-101>105-271000-
...SOUTHWEST MISSOURI...

CITY           SKY/WX    TMP DP  RH WIND       PRES   REMARKS
SPRINGFIELD    CLEAR     38  31  76 NW6       30.03R
JOPLIN         CLEAR     35  31  85 W5        30.08R

$$
MOZ032>034-039>042-045>050-055>058-069>072-271000-
...CENTRAL MISSOURI...

CITY           SKY/WX    TMP DP  RH WIND       PRES   REMARKS
COLUMBIA       CLEAR     37  32  82 NW7       30.01R
JEFFERSON CITY CLEAR     32  30  92 CALM      30.02R
ROLLA          CLEAR     39  32  76 NW9       29.97R
SEDALIA        CLEAR     39  32  76 NW9       30.05R
WHITEMAN AFB   CLEAR     38  32  78 NW7       30.05R
WARRENSBURG    CLEAR     37  32  81 NW5       30.07R
OSAGE BEACH    CLEAR     43  32  65 NW6       30.02R

$$
MOZ051-052-059>065-271000-
...EAST CENTRAL MISSOURI...

CITY           SKY/WX    TMP DP  RH WIND       PRES   REMARKS
ST LOUIS INTL  PTCLDY    36  31  82 NW7       29.96R
SPIRIT OF STL  MOCLDY    38  33  82 NW7       29.97R
ST CHARLES     CLEAR     37  33  85 W8        29.96R

$$
MOZ072>076-082>087-097>100-106>115-271000-
...SOUTH CENTRAL AND SOUTHEAST MISSOURI...

CITY           SKY/WX    TMP DP  RH WIND       PRES   REMARKS
CAPE GIRARDEAU PTCLDY    30  29  96 W3        29.94R
FARMINGTON     CLOUDY    41  34  75 MISG      29.97R
POPLAR BLUFF   CLEAR     30  27  88 CALM      29.95R
WEST PLAINS    CLEAR     44  33  65 N9        29.99R

$$



USA.gov is the U.S. government's official web portal to all federal, state and local government web resources and services.